Torna al catalogo

CZ-6A DEB

AttivoPO
NORAD 60793·DEBRIS·🇨🇳 China

Lanciato Aug 6, 2024 da Taiyuan Satellite Launch Center

Loading…

Prossimi Passaggi (prossime 24 ore)

TLE

AggiornatoSource: Space-Track

Epoca: Sep 14, 2026, 17:34 UTC

1 60793U 24140FU  26257.73233937  .00000074  00000-0  31058-4 0  9997
2 60793  89.0245 268.0181 0064832 270.0506  89.3252 14.14284100107938

Traccia CZ-6A DEB in tempo reale con AllMySat

Download on the App Store